Weather History for KBGR - July, 2013

Change the Weather History Date:

Tuesday, July 23, 2013

  Actual Average Record
Temperature  
Mean Temperature 64 °F 69 °F  
Max Temperature 69 °F 80 °F 94 °F (1955)
Min Temperature 58 °F 58 °F 50 °F (1992)
Degree Days  
Heating Degree Days 1 1  
Month to date heating degree days 4 23  
Since 1 June heating degree days 104 130  
Since 1 July heating degree days 4 23  
Cooling Degree Days 0 5  
Month to date cooling degree days 160 96  
Year to date cooling degree days 225 154  
Since 1 June cooling degree days 217 148  
Growing Degree Days 13 (Base 50)    
Moisture  
Dew Point 62 °F    
Average Humidity 92    
Maximum Humidity 100    
Minimum Humidity 84    
Precipitation  
Precipitation 0.87 in 0.12 in 1.42 in (1991)
Month to date precipitation 2.32 2.52  
Year to date precipitation 19.07 22.33  
Snow  
Snow 0.00 in 0.00 in 0.00 in (2002)
Month to date snowfall 0.0 0.0  
Since 1 June snowfall 0.0 0.0  
Since 1 July snowfall 0.0 0.0  
Snow Depth 0.00 in    
Sea Level Pressure  
Sea Level Pressure 29.72 in    
Wind  
Wind Speed 3 mph (ENE)    
Max Wind Speed 13 mph    
Max Gust Speed 17 mph    
Visibility 5 miles    
Events Fog , Rain    
T = Trace of Precipitation, MM = Missing Value Source: NWS Daily Summary

Daily Weather History Graph

Daily Weather History Graph

Search for Another Location

Airport or City:

Trip Planner

Search our weather history database for the weather conditions in past years. The results will help you decide how hot, cold, wet, or windy it might be!

Date:

Astronomy

Jul. 23, 2013 Rise Set
Actual Time 5:11 AM EDT 8:11 PM EDT
Civil Twilight 4:36 AM EDT 8:45 PM EDT
Nautical Twilight 3:52 AM EDT 9:30 PM EDT
Astronomical Twilight 2:59 AM EDT 10:22 PM EDT
Moon 8:30 PM EDT 6:21 AM EDT
Length of Visible Light 16h 08m
Length of Day
14h 59m
Full, 99% of the Moon is Illuminated
Jul 23
Full
Jul 29
Last Quarter
Aug 6
New
Aug 14
First Quarter
Aug 20
Full

Hourly Weather History & Observations

Time (EDT) Temp. Dew Point Humidity Pressure Visibility Wind Dir Wind Speed Gust Speed Precip Events Conditions
12:53 AM 57.9 °F 54.0 °F 87% 29.94 in 10.0 mi Calm Calm - N/A   Mostly Cloudy
1:53 AM 57.9 °F 55.9 °F 93% 29.92 in 10.0 mi Calm Calm - N/A   Overcast
2:00 AM 60.8 °F 55.4 °F 82% 29.92 in 10.0 mi Calm Calm - N/A   Mostly Cloudy
2:18 AM 60.8 °F 55.4 °F 82% 29.91 in 10.0 mi Calm Calm - N/A   Overcast
2:53 AM 61.0 °F 55.9 °F 83% 29.89 in 10.0 mi Calm Calm - N/A   Overcast
3:53 AM 61.0 °F 59.0 °F 93% 29.87 in 6.0 mi ESE 4.6 mph - N/A   Overcast
3:56 AM 60.8 °F 59.0 °F 94% 29.88 in 2.0 mi ESE 3.5 mph - N/A   Overcast
4:39 AM 60.8 °F 60.8 °F 100% 29.87 in 1.8 mi NNE 3.5 mph - 0.00 in Rain Light Rain
4:53 AM 60.1 °F 60.1 °F 100% 29.86 in 2.0 mi North 3.5 mph - 0.00 in Rain Light Rain
5:03 AM 60.8 °F 60.8 °F 100% 29.86 in 1.8 mi Calm Calm - 0.00 in Rain Light Rain
5:50 AM 60.8 °F 60.8 °F 100% 29.85 in 0.5 mi Calm Calm - 0.00 in Fog , Rain Light Rain
5:53 AM 61.0 °F 60.1 °F 97% 29.85 in 0.5 mi Calm Calm - 0.00 in Fog , Rain Light Rain
6:14 AM 60.8 °F 60.8 °F 100% 29.84 in 0.2 mi Calm Calm - 0.00 in Fog , Rain Light Rain
6:53 AM 61.0 °F 61.0 °F 100% 29.82 in 0.5 mi NE 5.8 mph - 0.01 in Fog , Rain Light Rain
7:53 AM 62.1 °F 62.1 °F 100% 29.81 in 1.5 mi NE 5.8 mph - 0.05 in Rain Rain
8:24 AM 62.6 °F 62.6 °F 100% 29.80 in 2.5 mi ENE 6.9 mph - 0.07 in Rain Light Rain
8:40 AM 62.6 °F 62.6 °F 100% 29.79 in 1.5 mi ENE 6.9 mph - 0.16 in Rain Heavy Rain
8:53 AM 62.1 °F 62.1 °F 100% 29.77 in 2.5 mi ENE 8.1 mph - 0.18 in Rain Light Rain
9:16 AM 62.6 °F 62.6 °F 100% 29.75 in 3.0 mi NE 9.2 mph - 0.02 in Rain Light Rain
9:53 AM 63.0 °F 62.1 °F 97% 29.73 in 5.0 mi East 11.5 mph - 0.02 in Rain Light Rain
10:13 AM 64.4 °F 62.6 °F 94% 29.73 in 5.0 mi East 9.2 mph - 0.00 in Rain Light Rain
10:53 AM 64.9 °F 63.0 °F 93% 29.70 in 8.0 mi East 9.2 mph - 0.01 in Rain Light Rain
11:53 AM 64.9 °F 63.0 °F 93% 29.68 in 4.0 mi East 8.1 mph - 0.01 in Rain Light Rain
12:53 PM 66.0 °F 64.0 °F 93% 29.64 in 8.0 mi East 5.8 mph - 0.02 in   Overcast
1:53 PM 66.9 °F 64.9 °F 93% 29.60 in 6.0 mi SE 6.9 mph - 0.02 in Rain Rain
2:18 PM 66.2 °F 64.4 °F 94% 29.61 in 1.5 mi Calm Calm - 0.08 in Rain Heavy Rain
2:27 PM 66.2 °F 64.4 °F 94% 29.61 in 0.8 mi Calm Calm - 0.21 in Rain Heavy Rain
2:48 PM 66.2 °F 64.4 °F 94% 29.60 in 1.2 mi WSW 3.5 mph - 0.41 in Rain Heavy Rain
2:53 PM 66.0 °F 64.9 °F 96% 29.60 in 1.5 mi WSW 3.5 mph - 0.41 in Rain Light Rain
3:53 PM 66.9 °F 64.9 °F 93% 29.58 in 4.0 mi SSW 4.6 mph - 0.07 in   Overcast
4:53 PM 66.9 °F 64.9 °F 93% 29.56 in 4.0 mi Calm Calm - 0.07 in   Overcast
5:53 PM 68.0 °F 66.0 °F 93% 29.55 in 5.0 mi WNW 3.5 mph - 0.00 in   Overcast
6:53 PM 69.1 °F 66.0 °F 90% 29.54 in 5.0 mi Calm Calm - 0.00 in   Mostly Cloudy
7:53 PM 68.0 °F 66.0 °F 93% 29.54 in 10.0 mi Calm Calm - N/A   Mostly Cloudy
8:04 PM 66.2 °F 66.2 °F 100% 29.54 in 10.0 mi Calm Calm - N/A   Mostly Cloudy
8:53 PM 66.9 °F 66.0 °F 97% 29.55 in 10.0 mi NW 4.6 mph - N/A   Mostly Cloudy
9:53 PM 64.9 °F 64.0 °F 97% 29.54 in 10.0 mi Calm Calm - N/A   Scattered Clouds
10:53 PM 64.9 °F 64.9 °F 100% 29.55 in 10.0 mi Calm Calm - N/A   Scattered Clouds
11:53 PM 64.0 °F 64.0 °F 100% 29.55 in 10.0 mi WSW 3.5 mph - N/A   Scattered Clouds